Flag for France Weather past 2 weeks in Douai, France

Now
54 °F

Light rain. Mostly cloudy.


Feels Like: 51 °F
Forecast: 52 / 68 °F
Wind: 9 mph from Southwest

Location: Lille Airport

Current Time: Jul 29, 2015 at 4:42:25 AM

Latest Report: Jul 29, 2015 at 4:00 AM


Visibility: N/A

Pressure: 29.80 "Hg

Humidity: 88%

Dew point: 50 °F

Location of DouaiLocation

Historic Weather in Douai — Graph

°F

Douai temperature yesterday

Maximum temperature yesterday: 64 °F (at 12:30 PM)
Minimum temperature yesterday: 55 °F (at 11:00 PM)
Average temperature yesterday: 61 °F

Past Weeks' High & Low Weather Summary

 TemperatureHumidityPressure
High84 °F (Jul 16, 4:30 PM)100% (Jul 14, 6:00 AM)30.12 "Hg (Jul 14, 6:00 AM)
Low48 °F (Jul 26, 5:30 AM)31% (Jul 18, 8:00 PM)29.50 "Hg (Jul 25, 3:00 AM)
Average65 °F73%29.91 "Hg
* Reported Jul 14 3:00 AM — Jul 29 3:00 AM, Douai, Weather by CustomWeather, © 2015

Note: Actual official high and low records may vary slightly from our data, if they occured in-between our weather recording intervals... More about our weather records

Advertising

Douai weather history for previous 24 hours

 ConditionsComfort  
Time TempWeatherWind HumidityBarometerVisibility
3:00 AM
Wed, Jul 29
52 °FClear.8 mph88%29.80 "Hg10 mi
2:30 AM54 °FClear.8 mph82%29.80 "Hg10 mi
2:00 AM54 °FClear.9 mph82%29.80 "Hg10 mi
1:30 AM54 °FClear.7 mph82%29.80 "Hg10 mi
1:00 AM54 °FClear.7 mph82%29.83 "Hg10 mi
11:30 PM
Tue, Jul 28
55 °FClear.8 mph77%29.80 "Hg10 mi
11:00 PM55 °FClear.9 mph77%29.80 "Hg10 mi
10:30 PM57 °FSunny.8 mph72%29.80 "Hg10 mi
10:00 PM57 °FSunny.12 mph67%29.80 "Hg10 mi
9:30 PM59 °FSunny.14 mph63%29.80 "Hg10 mi
9:00 PM61 °FSunny.18 mph55%29.80 "Hg10 mi
8:30 PM63 °FPassing clouds.18 mph52%29.80 "HgN/A
8:00 PM63 °FPassing clouds.21 mph52%29.80 "HgN/A
7:30 PM63 °FPassing clouds.18 mph49%29.80 "HgN/A
7:00 PM64 °FPassing clouds.20 mph46%29.80 "HgN/A
6:30 PM64 °FBroken clouds.20 mph52%29.80 "HgN/A
6:00 PM63 °FPartly sunny.18 mph52%29.80 "HgN/A
5:30 PM63 °FBroken clouds.18 mph52%29.80 "HgN/A
5:00 PM64 °FPartly sunny.21 mph49%29.77 "HgN/A
4:30 PM64 °FBroken clouds.21 mph49%29.77 "HgN/A
4:00 PM64 °FBroken clouds.21 mph49%29.77 "HgN/A
3:30 PM64 °FPartly sunny.21 mph49%29.77 "HgN/A
3:00 PM64 °FBroken clouds.23 mph46%29.77 "HgN/A
2:30 PM64 °FPassing clouds.22 mph46%29.77 "HgN/A
2:00 PM64 °FMostly cloudy.17 mph49%29.77 "HgN/A
1:30 PM64 °FMore clouds than sun.18 mph52%29.77 "HgN/A
1:00 PM64 °FMostly cloudy.20 mph52%29.74 "HgN/A
12:30 PM64 °FBroken clouds.20 mph52%29.74 "HgN/A
12:00 PM63 °FMore clouds than sun.24 mph56%29.74 "HgN/A
11:30 AM63 °FMostly cloudy.22 mph56%29.74 "HgN/A
11:00 AM61 °FPartly sunny.16 mph63%29.74 "HgN/A
10:30 AM61 °FPartly sunny.15 mph68%29.74 "HgN/A
10:00 AM61 °FMostly cloudy.13 mph72%29.74 "HgN/A
9:30 AM59 °FMostly cloudy.14 mph77%29.74 "HgN/A
9:00 AM59 °FMostly cloudy.13 mph77%29.74 "HgN/A
8:30 AM59 °FPartly sunny.13 mph77%29.74 "HgN/A
8:00 AM59 °FMostly cloudy.15 mph77%29.71 "HgN/A
7:30 AM59 °FSunny.17 mph77%29.71 "Hg10 mi
7:00 AM57 °FPassing clouds.17 mph82%29.71 "HgN/A
6:30 AM57 °FPassing clouds.15 mph82%29.68 "HgN/A
6:00 AM57 °FOvercast.14 mph82%29.68 "HgN/A
5:30 AM57 °FMostly cloudy.14 mph82%29.71 "HgN/A
5:00 AM57 °FMostly cloudy.13 mph77%29.68 "HgN/A
4:30 AM59 °FOvercast.10 mph72%29.71 "HgN/A
4:00 AM59 °FOvercast.12 mph72%29.68 "HgN/A
Weather by CustomWeather, © 2015

See weather overviewHow to use our weather pages